Weather History for Carbondale, IL

Change the Weather History Date:

Saturday, March 30, 2013

  Actual Average Record
Temperature  
Mean Temperature 53 °F -  
Max Temperature 61 °F 61 °F 81 °F (1967)
Min Temperature 46 °F 41 °F 18 °F (1964)
Degree Days  
Heating Degree Days 12    
Growing Degree Days 3 (Base 50)    
Moisture  
Dew Point 44 °F    
Average Humidity 78    
Maximum Humidity 100    
Minimum Humidity 55    
Precipitation  
Precipitation 0.40 in - - ()
Sea Level Pressure  
Sea Level Pressure 30.05 in    
Wind  
Wind Speed 3 mph (SE)    
Max Wind Speed 12 mph    
Max Gust Speed 25 mph    
Visibility 3 miles    
Events Rain    
Averages and records for this station are not official NWS values.
T = Trace of Precipitation, MM = Missing Value Source: NWS Daily Summary

Daily Weather History Graph

Daily Weather History Graph

Search for Another Location

Airport:

Trip Planner

Search our weather history database for the weather conditions in past years. The results will help you decide how hot, cold, wet, or windy it might be!

Date:

Astronomy

Mar. 30, 2013 Rise Set
Actual Time 6:44 AM CDT 7:18 PM CDT
Civil Twilight 6:18 AM CDT 7:44 PM CDT
Nautical Twilight 5:47 AM CDT 8:15 PM CDT
Astronomical Twilight 5:15 AM CDT 8:47 PM CDT
Moon 11:20 PM CDT (3/30) 8:44 AM CDT (3/30)
Length of Visible Light 13h 26m
Length of Day
12h 33m
Waning Gibbous, 86% of the Moon is Illuminated
Mar 30
Waning Gibbous
Apr 2
Last Quarter
Apr 10
New
Apr 18
First Quarter
Apr 25
Full

Hourly Weather History & Observations

Time (CDT) Temp. Dew Point Humidity Pressure Visibility Wind Dir Wind Speed Gust Speed Precip Events Conditions
12:28 AM 48.2 °F 35.6 °F 62% 30.21 in 0.2 mi Calm Calm - N/A   Haze
12:52 AM 48.9 °F 37.0 °F 64% 30.22 in 0.2 mi Calm Calm - N/A   Haze
2:52 AM 46.9 °F 37.0 °F 68% 30.21 in 0.2 mi South 3.5 mph - N/A   Haze
3:52 AM 46.9 °F 37.0 °F 68% 30.19 in 0.2 mi East 3.5 mph - N/A   Haze
4:49 AM 48.2 °F 37.4 °F 66% 30.19 in 0.2 mi Calm Calm - N/A   Haze
4:52 AM 48.0 °F 37.0 °F 66% 30.19 in 0.2 mi Calm Calm - 0.01 in   Haze
5:07 AM 48.2 °F 37.4 °F 66% 30.18 in 0.2 mi East 3.5 mph - N/A   Haze
5:52 AM 48.9 °F 39.0 °F 69% 30.18 in 0.2 mi SE 4.6 mph - N/A   Haze
6:22 AM 48.2 °F 39.2 °F 71% 30.18 in 0.2 mi SE 6.9 mph - N/A   Haze
6:52 AM 48.9 °F 39.0 °F 69% 30.19 in 0.2 mi ESE 4.6 mph - N/A   Haze
7:52 AM 51.1 °F 41.0 °F 68% 30.19 in 0.2 mi SE 4.6 mph - N/A   Haze
8:10 AM 51.8 °F 42.8 °F 71% 30.19 in 0.8 mi ESE 4.6 mph 25.3 mph N/A   Haze
8:17 AM 51.8 °F 42.8 °F 71% 30.18 in 1.2 mi ESE 5.8 mph - N/A   Haze
8:30 AM 51.8 °F 42.8 °F 71% 30.18 in 2.5 mi ESE 6.9 mph - N/A   Haze
8:52 AM 55.0 °F 43.0 °F 64% 30.18 in 3.0 mi East 4.6 mph - N/A   Haze
9:38 AM 55.4 °F 44.6 °F 67% 30.17 in 6.0 mi ESE 6.9 mph - N/A   Haze
9:52 AM 55.9 °F 45.0 °F 67% 30.17 in 6.0 mi SE 8.1 mph - N/A   Haze
10:21 AM 57.2 °F 44.6 °F 63% 30.16 in 8.0 mi SE 6.9 mph - N/A   Scattered Clouds
10:28 AM 57.2 °F 44.6 °F 63% 30.15 in 8.0 mi ESE 5.8 mph - N/A   Mostly Cloudy
10:52 AM 59.0 °F 45.0 °F 60% 30.14 in 9.0 mi ESE 4.6 mph - N/A   Overcast
11:13 AM 59.0 °F 44.6 °F 59% 30.14 in 10.0 mi SSE 8.1 mph - N/A   Overcast
12:52 PM 60.1 °F 44.1 °F 55% 30.11 in 10.0 mi South 11.5 mph - N/A   Mostly Cloudy
1:52 PM 59.0 °F 44.1 °F 58% 30.07 in 10.0 mi South 10.4 mph - N/A   Overcast
2:52 PM 57.9 °F 43.0 °F 58% 30.05 in 9.0 mi SSE 6.9 mph - N/A   Overcast
3:38 PM 57.2 °F 42.8 °F 59% 30.03 in 8.0 mi Calm Calm - N/A   Overcast
3:52 PM 59.0 °F 43.0 °F 55% 30.03 in 8.0 mi Calm Calm - N/A   Overcast
4:30 PM 59.0 °F 44.6 °F 59% 30.01 in 9.0 mi SSE 6.9 mph - N/A   Overcast
4:40 PM 59.0 °F 44.6 °F 59% 30.00 in 9.0 mi SSE 4.6 mph - N/A   Overcast
4:52 PM 59.0 °F 44.1 °F 58% 30.00 in 8.0 mi South 3.5 mph - 0.00 in Rain Light Rain
5:52 PM 50.0 °F 46.9 °F 89% 29.98 in 3.0 mi NNE 3.5 mph - 0.04 in Rain Rain
6:00 PM 50.0 °F 48.2 °F 94% 29.98 in 2.0 mi Calm Calm - 0.02 in Rain Rain
6:24 PM 48.2 °F 48.2 °F 100% 29.98 in 1.8 mi NE 3.5 mph - 0.09 in Rain Rain
6:52 PM 48.9 °F 46.9 °F 93% 29.98 in 1.2 mi Calm Calm - 0.20 in Rain Rain
7:12 PM 48.2 °F 46.4 °F 93% 29.97 in 1.5 mi Calm Calm - 0.06 in Rain Rain
7:30 PM 48.2 °F 46.4 °F 93% 29.96 in 1.5 mi East 4.6 mph - 0.11 in Rain Rain
7:38 PM 48.2 °F 46.4 °F 93% 29.96 in 2.5 mi East 4.6 mph - 0.12 in Rain Light Rain
7:49 PM 48.2 °F 46.4 °F 93% 29.96 in 3.0 mi Calm Calm - 0.13 in Rain Light Rain
7:52 PM 48.9 °F 46.9 °F 93% 29.96 in 2.5 mi Calm Calm - 0.13 in Rain Light Rain
7:55 PM 48.2 °F 46.4 °F 93% 29.96 in 2.5 mi Calm Calm - 0.01 in Rain Light Rain
8:14 PM 48.2 °F 46.4 °F 93% 29.96 in 2.5 mi Calm Calm - 0.01 in Rain Light Rain
8:24 PM 48.2 °F 46.4 °F 93% 29.96 in 2.5 mi Calm Calm - 0.02 in Rain Light Rain
8:43 PM 48.2 °F 46.4 °F 93% 29.96 in 1.8 mi Calm Calm - 0.02 in   Overcast
8:52 PM 48.9 °F 46.9 °F 93% 29.96 in 1.8 mi East 3.5 mph - 0.02 in   Overcast
8:55 PM 48.2 °F 46.4 °F 93% 29.96 in 2.0 mi ESE 3.5 mph - N/A   Overcast
9:17 PM 48.2 °F 46.4 °F 93% 29.95 in 3.0 mi ESE 3.5 mph - N/A   Overcast
9:28 PM 48.2 °F 46.4 °F 93% 29.95 in 2.5 mi SE 3.5 mph - N/A   Overcast
9:38 PM 48.2 °F 46.4 °F 93% 29.95 in 2.5 mi SE 4.6 mph - N/A   Overcast
9:52 PM 48.9 °F 46.9 °F 93% 29.95 in 2.5 mi Calm Calm - N/A   Overcast
10:03 PM 48.2 °F 46.4 °F 93% 29.95 in 3.0 mi ESE 3.5 mph - N/A   Overcast
10:27 PM 48.2 °F 46.4 °F 93% 29.95 in 2.5 mi Calm Calm - N/A   Overcast
10:52 PM 48.0 °F 46.9 °F 96% 29.94 in 2.5 mi Calm Calm - N/A   Overcast
11:00 PM 48.2 °F 46.4 °F 93% 29.95 in 2.0 mi Calm Calm - N/A   Overcast
11:09 PM 48.2 °F 46.4 °F 93% 29.94 in 2.0 mi Calm Calm - N/A   Overcast
11:30 PM 48.2 °F 46.4 °F 93% 29.93 in 1.8 mi Calm Calm - N/A   Overcast
11:52 PM 48.0 °F 46.9 °F 96% 29.93 in 2.0 mi Calm Calm - N/A   Overcast